Hyannis, MA

5:14 AM EST on November 20, 2017 (GMT -0500)
Barnstable Municipal-Boardman-Polando Field

Weather History for KHYA - September, 2012

Change the Weather History Date:

Friday, September 7, 2012

  Actual Average Record
Temperature  
Mean Temperature 73 °F -  
Max Temperature 81 °F 73 °F 88 °F (1959)
Min Temperature 66 °F 58 °F 37 °F (2000)
Cooling Degree Days 8    
Growing Degree Days 23 (Base 50)    
Moisture  
Dew Point 70 °F    
Average Humidity 90    
Maximum Humidity 100    
Minimum Humidity 71    
Precipitation  
Precipitation 0.00 in - - ()
Sea Level Pressure  
Sea Level Pressure 29.91 in    
Wind  
Wind Speed 7 mph (SSW)    
Max Wind Speed 13 mph    
Max Gust Speed 18 mph    
Visibility 10 miles    
Events      
Averages and records for this station are not official NWS values.
T = Trace of Precipitation, MM = Missing Value Source: NWS Daily Summary

Daily Weather History Graph

Daily Weather History Graph

Search for Another Location

Airport or City:

Trip Planner

Search our weather history database for the weather conditions in past years. The results will help you decide how hot, cold, wet, or windy it might be!

Date:

Astronomy

Sep. 07, 2012 Rise Set
Actual Time 6:13 AM EDT 7:03 PM EDT
Civil Twilight 5:45 AM EDT 7:31 PM EDT
Nautical Twilight 5:11 AM EDT 8:05 PM EDT
Astronomical Twilight 4:37 AM EDT 8:39 PM EDT
Moon 10:50 PM EDT (9/7) 1:08 PM EDT (9/7)
Length of Visible Light 13h 46m
Length of Day
12h 49m
Waning Gibbous, 58% of the Moon is Illuminated
Sep 7
Waning Gibbous
Sep 8
Last Quarter
Sep 15
New
Sep 22
First Quarter
Sep 29
Full

Hourly Weather History & Observations

Time (EDT) Temp. Heat Index Dew Point Humidity Pressure Visibility Wind Dir Wind Speed Gust Speed Precip Events Conditions
12:56 AM 66.0 °F - 64.0 °F 93% 29.90 in 10.0 mi SSW 4.6 mph - N/A   Scattered Clouds
1:05 AM 68.0 °F - 66.2 °F 94% 29.89 in 10.0 mi SW 8.1 mph - N/A   Mostly Cloudy
1:56 AM 68.0 °F - 66.2 °F 94% 29.89 in 10.0 mi SSW 3.5 mph - N/A   Scattered Clouds
2:08 AM 68.0 °F - 66.2 °F 94% 29.89 in 10.0 mi SW 4.6 mph - N/A   Mostly Cloudy
2:32 AM 68.0 °F - 66.2 °F 94% 29.88 in 10.0 mi SW 4.6 mph - N/A   Mostly Cloudy
2:44 AM 68.0 °F - 66.2 °F 94% 29.88 in 10.0 mi SSW 3.5 mph - N/A   Scattered Clouds
2:56 AM 68.0 °F - 66.9 °F 96% 29.88 in 10.0 mi SSW 5.8 mph - N/A   Partly Cloudy
3:34 AM 68.0 °F - 68.0 °F 100% 29.87 in 10.0 mi SSW 4.6 mph - N/A   Scattered Clouds
3:56 AM 68.0 °F - 66.9 °F 96% 29.87 in 10.0 mi SSW 4.6 mph - N/A   Partly Cloudy
4:56 AM 69.1 °F - 68.0 °F 96% 29.88 in 10.0 mi SSW 4.6 mph - N/A   Partly Cloudy
5:56 AM 70.0 °F - 69.1 °F 97% 29.90 in 10.0 mi SW 3.5 mph - N/A   Overcast
6:45 AM 71.6 °F - 69.8 °F 94% 29.90 in 10.0 mi SSW 5.8 mph - N/A   Overcast
6:56 AM 71.1 °F - 70.0 °F 96% 29.91 in 10.0 mi SSW 4.6 mph - N/A   Overcast
7:56 AM 72.0 °F - 71.1 °F 97% 29.91 in 10.0 mi SW 8.1 mph - N/A   Overcast
8:11 AM 71.6 °F - 71.6 °F 100% 29.92 in 10.0 mi SW 8.1 mph - N/A   Overcast
8:56 AM 73.0 °F - 71.1 °F 93% 29.93 in 10.0 mi SW 10.4 mph - N/A   Overcast
9:03 AM 73.4 °F - 71.6 °F 94% 29.92 in 10.0 mi WSW 10.4 mph - N/A   Overcast
9:10 AM 73.4 °F - 71.6 °F 94% 29.92 in 10.0 mi SW 10.4 mph - N/A   Overcast
9:20 AM 73.4 °F - 71.6 °F 94% 29.93 in 10.0 mi SW 10.4 mph - N/A   Overcast
9:56 AM 75.0 °F - 71.1 °F 87% 29.93 in 10.0 mi SW 8.1 mph - N/A   Overcast
10:39 AM 75.2 °F - 71.6 °F 89% 29.93 in 10.0 mi SW 10.4 mph - N/A   Overcast
10:56 AM 75.9 °F - 71.1 °F 85% 29.93 in 10.0 mi SSW 8.1 mph - N/A   Overcast
11:10 AM 75.2 °F - 71.6 °F 89% 29.92 in 10.0 mi SSW 9.2 mph - N/A   Overcast
11:24 AM 77.0 °F - 71.6 °F 83% 29.91 in 10.0 mi SW 10.4 mph - N/A   Mostly Cloudy
11:56 AM 78.1 °F - 70.0 °F 76% 29.92 in 10.0 mi SSW 11.5 mph - N/A   Mostly Cloudy
12:52 PM 78.8 °F - 69.8 °F 74% 29.91 in 10.0 mi SW 11.5 mph - N/A   Scattered Clouds
12:56 PM 79.0 °F - 70.0 °F 74% 29.92 in 10.0 mi SW 10.4 mph - N/A   Partly Cloudy
1:56 PM 80.1 °F 83.2 °F 70.0 °F 71% 29.92 in 10.0 mi SW 12.7 mph 18.4 mph N/A   Partly Cloudy
2:56 PM 80.1 °F 83.2 °F 70.0 °F 71% 29.91 in 10.0 mi SW 10.4 mph - N/A   Clear
3:56 PM 79.0 °F - 69.1 °F 72% 29.91 in 10.0 mi SW 12.7 mph - N/A   Clear
4:56 PM 78.1 °F - 69.1 °F 74% 29.91 in 10.0 mi SSW 9.2 mph - N/A   Clear
5:56 PM 75.0 °F - 70.0 °F 84% 29.91 in 10.0 mi SSW 9.2 mph - N/A   Clear
6:44 PM 73.4 °F - 71.6 °F 94% 29.91 in 10.0 mi SSW 8.1 mph - N/A   Partly Cloudy
6:56 PM 73.0 °F - 71.1 °F 93% 29.92 in 10.0 mi SSW 8.1 mph - N/A   Clear
7:56 PM 73.0 °F - 71.1 °F 93% 29.94 in 10.0 mi SSW 6.9 mph - N/A   Clear
8:56 PM 73.0 °F - 72.0 °F 96% 29.94 in 10.0 mi SSW 8.1 mph - N/A   Mostly Cloudy
9:56 PM 73.0 °F - 71.1 °F 93% 29.94 in 10.0 mi SSW 6.9 mph - N/A   Mostly Cloudy
10:03 PM 73.4 °F - 71.6 °F 94% 29.93 in 10.0 mi South 5.8 mph - N/A   Scattered Clouds
10:10 PM 73.4 °F - 71.6 °F 94% 29.93 in 10.0 mi SSW 4.6 mph - N/A   Mostly Cloudy
10:21 PM 73.4 °F - 71.6 °F 94% 29.93 in 10.0 mi South 5.8 mph - N/A   Scattered Clouds
10:29 PM 71.6 °F - 71.6 °F 100% 29.93 in 10.0 mi South 6.9 mph - N/A   Mostly Cloudy
10:56 PM 73.0 °F - 71.1 °F 93% 29.92 in 10.0 mi South 5.8 mph - N/A   Mostly Cloudy
11:45 PM 73.4 °F - 71.6 °F 94% 29.91 in 10.0 mi South 6.9 mph - N/A   Mostly Cloudy
11:56 PM 73.0 °F - 72.0 °F 96% 29.91 in 10.0 mi SSW 9.2 mph - N/A   Mostly Cloudy